This is the latest recevied weather packets stored in our database for station/object ZR6G-15. If no packets are shown the sender has not sent any weather packets the latest 10 day(s).
| Time | Temp. | Humidity | Pressure | Rain* | Wind** | Luminosity | Snow |
|---|---|---|---|---|---|---|---|
| 1778002626 | 13.89° C | 57% | 1007.6 hPa | - | - | - | - |
| 1778002021 | 13.89° C | 57% | 1006.9 hPa | - | - | - | - |
| 1778001416 | 13.89° C | 57% | 1007.6 hPa | - | - | - | - |
| 1778000812 | 13.89° C | 58% | 1007.5 hPa | - | - | - | - |
| 1778000208 | 13.89° C | 58% | 1007.3 hPa | - | - | - | - |
| 1777999603 | 13.89° C | 58% | 1007 hPa | - | - | - | - |
| 1777998998 | 13.89° C | 57% | 1007 hPa | - | - | - | - |
| 1777998393 | 13.89° C | 57% | 1006.9 hPa | - | - | - | - |
| 1777997788 | 13.89° C | 56% | 1006.5 hPa | - | - | - | - |
| 1777997183 | 13.89° C | 56% | 1006 hPa | - | - | - | - |
| 1777996578 | 13.89° C | 56% | 1006.3 hPa | - | - | - | - |
| 1777995974 | 13.89° C | 56% | 1006.3 hPa | - | - | - | - |
| 1777995369 | 13.89° C | 55% | 1006.6 hPa | - | - | - | - |
| 1777994767 | 13.89° C | 53% | 1006 hPa | - | - | - | - |
| 1777994160 | 15° C | 52% | 1006.2 hPa | - | - | - | - |
| 1777993555 | 15° C | 52% | 1006 hPa | - | - | - | - |
| 1777992950 | 15° C | 54% | 1006.4 hPa | - | - | - | - |
| 1777992346 | 15° C | 51% | 1006.5 hPa | - | - | - | - |
| 1777991742 | 15° C | 54% | 1007.4 hPa | - | - | - | - |
| 1777991137 | 15° C | 53% | 1007.3 hPa | - | - | - | - |
| 1777990532 | 13.89° C | 53% | 1007.3 hPa | - | - | - | - |
| 1777989927 | 13.89° C | 52% | 1007.6 hPa | - | - | - | - |
| 1777989323 | 13.89° C | 54% | 1008.3 hPa | - | - | - | - |
| 1777988718 | 13.89° C | 51% | 1008.6 hPa | - | - | - | - |
| 1777988113 | 13.89° C | 52% | 1008.7 hPa | - | - | - | - |
* Rain since midnight (hover to see other rain measurements)
** Current wind speed in m/s (hover to see current wind gust speed)